Powrót do katalogu

STARLINK-34413

AktywnyŁącznośćVLEO
NORAD 64616·PAYLOAD·🇺🇸 United States

Wystrzelony Jun 25, 2025 z Cape Canaveral Space Force Station

Loading…

Następne Przeloty (najbliższe 24 godziny)

TLE

ŚwieżeSource: CelesTrak SupGP

Epoka: Sep 15, 2026, 03:01 UTC

1 64616C 25137Y   26258.12618056 -.00026993  00000+0 -79769-3 0  2582
2 64616  53.1575 172.5928 0001294  89.6125  29.8221 15.34397378    17

Śledź STARLINK-34413 w czasie rzeczywistym z AllMySat

Download on the App Store